Latest Coastal Weather Observations for Creal Reef

IDQ60701

Issued at 5:25 pm EST Tuesday 16 September 2014 (issued every 10 minutes, with the page automatically refreshed every 10 minutes)

About coastal observations | Map of coastal stations | Coastal observations for QLD | Marine services | Other Formats
Station Details ID: 200736 Name: CREAL REEF Lat: -20.53 Lon: 150.38 Height: 1.7 m
Data from the previous 72 hours. | See also: Recent months for locations in Queensland
Date/Time
EST
Temp

°C
Wind Pressure Rain
since 9am
mm
Weather Cloud Vis
km
Sea
Height
m
Swell
Dir
 
Speed
knots
Gust
knots
hPa Trend Height
m
Period
s
Dir
16/05:20pm 22.1 ESE 10 11 1014.6 - - - - - - - - -
16/05:00pm 22.2 SE 9 11 1014.8 - - - - - - - - -
16/04:30pm 22.2 SE 9 11 1014.8 - - - - - - - - -
16/04:20pm 22.1 SE 9 - 1014.7 - - - - - - - - -
16/04:00pm 22.4 SSE 8 10 1014.6 - - - - - - - - -
16/03:30pm 22.2 SE 9 11 1014.7 - - - - - - - - -
16/03:20pm 22.2 SE 9 - 1014.5 - - - - - - - - -
16/03:00pm 22.3 SE 9 11 1014.6 - - - - - - - - -
16/02:30pm 22.2 SSE 8 11 1014.8 - - - - - - - - -
16/02:20pm 22.3 SSE 8 - 1014.8 - - - - - - - - -
16/02:00pm 22.4 SSE 9 11 1015.1 - - - - - - - - -
16/01:30pm 22.5 SSE 9 11 1015.3 - - - - - - - - -
16/01:20pm 22.4 SSE 9 - 1015.3 - - - - - - - - -
16/01:00pm 22.5 SSE 9 11 1015.6 - - - - - - - - -
16/12:30pm 22.4 SSE 10 11 1016.1 - - - - - - - - -
16/12:20pm 22.5 SSE 9 - 1016.1 - - - - - - - - -
16/12:00pm 22.2 S 11 13 1016.4 - - - - - - - - -
16/11:30am 22.4 SSE 9 11 1016.7 - - - - - - - - -
16/11:20am 22.4 SSE 10 - 1016.8 - - - - - - - - -
16/11:00am 22.6 SSE 11 13 1017.2 - - - - - - - - -
16/10:30am 22.3 SSE 9 11 1017.5 - - - - - - - - -
16/10:20am 22.4 SSE 9 - 1017.4 - - - - - - - - -
16/10:00am 22.0 SSE 10 12 1017.5 - - - - - - - - -
16/09:30am 22.1 S 10 11 1017.7 - - - - - - - - -
16/09:20am 22.1 S 10 - 1017.7 - - - - - - - - -
16/09:00am 22.3 S 9 10 1018.0 - - - - - - - - -
16/08:30am 22.2 S 7 8 1018.0 - - - - - - - - -
16/08:20am 22.3 S 7 - 1017.7 - - - - - - - - -
16/08:00am 22.2 S 7 8 1017.7 - - - - - - - - -
16/07:30am 22.4 S 6 7 1017.4 - - - - - - - - -
16/07:20am 22.2 SSE 7 - 1017.2 - - - - - - - - -
16/07:00am 22.4 SE 6 7 1017.0 - - - - - - - - -
16/06:30am 22.2 SE 7 8 1016.8 - - - - - - - - -
16/06:20am 22.0 SE 6 8 1016.6 - - - - - - - - -
16/06:00am 22.1 SE 7 9 1016.3 - - - - - - - - -
16/05:30am 22.0 SE 6 8 1016.0 - - - - - - - - -
16/05:20am 22.0 ESE 7 - 1015.9 - - - - - - - - -
16/05:00am 21.8 ESE 6 8 1015.8 - - - - - - - - -
16/04:30am 22.0 ESE 7 8 1015.6 - - - - - - - - -
16/04:20am 21.8 ESE 7 - 1015.4 - - - - - - - - -
16/04:00am 21.7 ESE 6 8 1015.5 - - - - - - - - -
16/03:30am 21.6 SE 7 9 1015.3 - - - - - - - - -
16/03:20am 21.6 ESE 8 - 1015.1 - - - - - - - - -
16/03:00am 21.6 ESE 8 10 1015.3 - - - - - - - - -
16/02:30am 21.7 E 9 11 1015.2 - - - - - - - - -
16/02:20am 21.5 E 10 - 1015.1 - - - - - - - - -
16/02:00am 21.6 E 11 12 1015.3 - - - - - - - - -
16/01:30am 21.6 E 12 14 1015.5 - - - - - - - - -
16/01:20am 21.8 ESE 12 - 1015.4 - - - - - - - - -
16/01:00am 21.7 ESE 13 15 1015.7 - - - - - - - - -
16/12:30am 21.8 ESE 13 16 1015.8 - - - - - - - - -
16/12:20am 22.0 E 13 - 1015.8 - - - - - - - - -
16/12:00am 21.8 E 13 15 1016.2 - - - - - - - - -
 
Date/Time
EST
Temp

°C
Wind Pressure Rain
since 9am
mm
Weather Cloud Vis
km
Sea
Height
m
Swell
Dir
 
Speed
knots
Gust
knots
hPa Trend Height
m
Period
s
Dir
15/11:30pm 21.7 ESE 13 15 1016.4 - - - - - - - - -
15/11:20pm 21.8 ESE 12 - 1016.3 - - - - - - - - -
15/11:00pm 21.8 ESE 12 14 1016.4 - - - - - - - - -
15/10:30pm 21.6 SE 11 14 1016.7 - - - - - - - - -
15/10:20pm 21.7 SE 12 - 1016.7 - - - - - - - - -
15/10:00pm 21.8 SE 12 14 1016.9 - - - - - - - - -
15/09:30pm 21.8 SE 12 14 1017.0 - - - - - - - - -
15/09:20pm 21.6 SE 12 - 1016.9 - - - - - - - - -
15/09:00pm 21.7 SE 12 14 1017.0 - - - - - - - - -
15/08:30pm 21.8 SSE 13 15 1016.9 - - - - - - - - -
15/08:20pm 21.9 SE 12 - 1016.7 - - - - - - - - -
15/08:00pm 21.9 SE 14 16 1016.7 - - - - - - - - -
15/07:30pm 21.9 SE 13 15 1016.3 - - - - - - - - -
15/07:20pm 21.9 SSE 13 - 1016.1 - - - - - - - - -
15/07:00pm 21.9 SE 13 15 1016.0 - - - - - - - - -
15/06:30pm 21.8 SSE 13 17 1015.6 - - - - - - - - -
15/06:20pm 21.9 SSE 14 - 1015.5 - - - - - - - - -
15/06:00pm 21.9 SE 14 16 1015.4 - - - - - - - - -
15/05:30pm 22.0 SE 14 17 1015.1 - - - - - - - - -
15/05:20pm 22.0 SE 15 - 1014.9 - - - - - - - - -
15/05:00pm 22.0 SE 15 17 1014.9 - - - - - - - - -
15/04:30pm 22.1 SE 15 16 1014.8 - - - - - - - - -
15/04:20pm 22.1 SE 15 - 1014.6 - - - - - - - - -
15/04:00pm 22.1 SE 16 18 1014.6 - - - - - - - - -
15/03:30pm 22.1 SE 16 19 1014.6 - - - - - - - - -
15/03:20pm 22.0 SE 15 - 1014.5 - - - - - - - - -
15/03:00pm 22.0 SE 16 19 1014.6 - - - - - - - - -
15/02:30pm 22.3 SE 16 18 1014.8 - - - - - - - - -
15/02:20pm 22.2 SE 16 - 1014.7 - - - - - - - - -
15/02:00pm 22.1 SE 16 18 1014.9 - - - - - - - - -
15/01:30pm 22.3 SSE 16 19 1015.1 - - - - - - - - -
15/01:20pm 22.1 SSE 15 - 1015.1 - - - - - - - - -
15/01:00pm 22.1 SE 16 19 1015.4 - - - - - - - - -
15/12:30pm 22.3 SSE 16 19 1015.7 - - - - - - - - -
15/12:20pm 22.4 SSE 16 - 1015.7 - - - - - - - - -
15/12:00pm 22.5 SSE 15 19 1016.0 - - - - - - - - -
15/11:30am 22.3 SSE 15 19 1016.4 - - - - - - - - -
15/11:20am 22.2 SE 16 - 1016.5 - - - - - - - - -
15/11:00am 22.6 SE 16 18 1016.8 - - - - - - - - -
15/10:20am 22.6 SE 15 - 1017.4 - - - - - - - - -
15/09:20am 22.4 SE 15 - 1017.8 - - - - - - - - -
15/08:20am 22.4 SE 17 - 1017.6 - - - - - - - - -
15/07:20am 22.3 SE 18 - 1017.3 - - - - - - - - -
15/06:20am 22.0 SE 18 - 1016.6 - - - - - - - - -
15/05:20am 22.0 SE 17 - 1016.2 - - - - - - - - -
15/04:20am 21.7 ESE 17 - 1015.8 - - - - - - - - -
15/03:20am 21.8 SE 19 - 1015.8 - - - - - - - - -
15/02:20am 22.0 SE 18 - 1015.9 - - - - - - - - -
15/01:20am 22.2 SE 20 - 1016.5 - - - - - - - - -
15/12:20am 22.1 SE 22 - 1016.9 - - - - - - - - -
 
Date/Time
EST
Temp

°C
Wind Pressure Rain
since 9am
mm
Weather Cloud Vis
km
Sea
Height
m
Swell
Dir
 
Speed
knots
Gust
knots
hPa Trend Height
m
Period
s
Dir
14/11:20pm 22.1 SE 21 - 1017.3 - - - - - - - - -
14/10:20pm 22.2 SE 22 - 1017.2 - - - - - - - - -
14/09:20pm 22.3 SE 21 - 1017.0 - - - - - - - - -
14/08:20pm 22.4 SE 22 - 1017.1 - - - - - - - - -
14/07:20pm 22.0 SE 22 - 1016.7 - - - - - - - - -
14/06:30pm 22.2 SE 21 24 1016.4 - - - - - - - - -
14/06:20pm 22.2 SE 22 - 1016.2 - - - - - - - - -
14/06:00pm 22.2 SSE 19 24 1016.2 - - - - - - - - -
14/05:30pm 22.4 SE 21 25 1016.0 - - - - - - - - -
14/05:20pm 22.4 SE 21 - 1015.9 - - - - - - - - -
14/05:00pm 22.4 SSE 20 23 1016.0 - - - - - - - - -
14/04:30pm 22.4 SSE 19 22 1015.8 - - - - - - - - -
14/04:20pm 22.6 SSE 18 - 1015.8 - - - - - - - - -
14/04:00pm 22.6 SSE 20 23 1015.7 - - - - - - - - -
14/03:30pm 22.5 SSE 19 23 1015.6 - - - - - - - - -
14/03:20pm 22.5 SSE 18 - 1015.5 - - - - - - - - -
14/03:00pm 22.5 SSE 18 22 1015.6 - - - - - - - - -
14/02:30pm 22.3 SSE 19 23 1015.8 - - - - - - - - -
14/02:20pm 22.5 SE 19 - 1015.7 - - - - - - - - -
14/02:00pm 22.4 SSE 19 22 1016.0 - - - - - - - - -
14/01:30pm 21.6 SE 18 23 1016.5 - - - - - - - - -
14/01:20pm 22.5 SE 20 - 1016.5 - - - - - - - - -
14/01:00pm 22.4 SSE 17 22 1016.7 - - - - - - - - -
14/12:30pm 22.4 SE 20 22 1016.9 - - - - - - - - -
14/12:20pm 22.4 SE 19 - 1017.0 - - - - - - - - -
14/12:00pm 22.3 SE 19 23 1017.2 - - - - - - - - -
14/11:30am 22.2 SSE 19 22 1017.5 - - - - - - - - -
14/11:20am 22.2 SSE 18 - 1017.5 - - - - - - - - -
14/11:00am 22.5 SSE 16 20 1018.0 - - - - - - - - -
14/10:30am 22.3 SE 18 22 1018.1 - - - - - - - - -
14/10:20am 22.2 SE 18 - 1018.1 - - - - - - - - -
14/10:00am 22.4 SE 19 22 1018.3 - - - - - - - - -
14/09:30am 22.0 SE 19 24 1018.4 - - - - - - - - -
14/09:20am 22.0 SSE 19 - 1018.2 - - - - - - - - -
14/09:00am 21.9 SE 20 23 1018.2 - - - - - - - - -
14/08:30am 22.0 SSE 20 25 1018.1 - - - - - - - - -
14/08:20am 21.9 SSE 21 - 1017.9 - - - - - - - - -
14/08:00am 22.2 SE 23 26 1017.9 - - - - - - - - -
14/07:30am 22.0 SE 22 26 1017.7 - - - - - - - - -
14/07:20am 21.9 SE 22 - 1017.5 - - - - - - - - -
14/07:00am 21.7 SE 23 26 1017.4 - - - - - - - - -
14/06:30am 21.7 SE 21 25 1017.3 - - - - - - - - -
14/06:20am 21.6 SE 20 - 1017.1 - - - - - - - - -
14/06:00am 21.6 SSE 20 24 1017.0 - - - - - - - - -
14/05:30am 21.6 SSE 22 27 1016.6 - - - - - - - - -
14/05:20am 21.6 SSE 20 - 1016.5 - - - - - - - - -
14/05:00am 21.7 SSE 21 26 1016.6 - - - - - - - - -
14/04:30am 21.6 SE 22 26 1016.5 - - - - - - - - -
14/04:20am 21.7 SE 22 - 1016.3 - - - - - - - - -
14/04:00am 21.7 SE 22 25 1016.3 - - - - - - - - -
14/03:30am 21.5 SE 23 25 1016.4 - - - - - - - - -
14/03:20am 21.6 SE 22 - 1016.4 - - - - - - - - -
14/03:00am 21.6 SE 23 27 1016.8 - - - - - - - - -
14/02:30am 21.7 SE 22 25 1017.0 - - - - - - - - -
14/02:20am 21.8 SE 22 - 1017.0 - - - - - - - - -
14/02:00am 21.8 SE 22 24 1017.4 - - - - - - - - -
14/01:30am 21.9 SE 22 25 1017.9 - - - - - - - - -
14/01:20am 22.0 SE 23 - 1017.9 - - - - - - - - -
14/01:00am 21.8 SE 22 25 1018.0 - - - - - - - - -
14/12:30am 21.9 SE 21 25 1018.4 - - - - - - - - -
14/12:20am 22.0 SE 21 - 1018.4 - - - - - - - - -
14/12:00am 22.0 SE 21 24 1018.5 - - - - - - - - -
 
Date/Time
EST
Temp

°C
Wind Pressure Rain
since 9am
mm
Weather Cloud Vis
km
Sea
Height
m
Swell
Dir
 
Speed
knots
Gust
knots
hPa Trend Height
m
Period
s
Dir
13/11:30pm 21.7 SE 21 24 1018.8 - - - - - - - - -
13/11:20pm 21.9 SE 21 - 1018.8 - - - - - - - - -
13/11:00pm 21.9 SE 21 25 1018.9 - - - - - - - - -
13/10:30pm 21.9 SE 22 25 1019.0 - - - - - - - - -
13/10:20pm 21.8 SE 23 - 1018.9 - - - - - - - - -
13/10:00pm 21.7 SSE 23 26 1019.1 - - - - - - - - -
13/09:30pm 21.9 SE 23 27 1019.3 - - - - - - - - -
13/09:20pm 21.9 SE 23 - 1019.3 - - - - - - - - -
13/09:00pm 21.8 SE 22 25 1019.3 - - - - - - - - -
13/08:30pm 22.0 SSE 21 25 1019.2 - - - - - - - - -
13/08:20pm 22.0 SE 21 - 1019.0 - - - - - - - - -
13/08:00pm 21.9 SSE 23 26 1018.9 - - - - - - - - -
13/07:30pm 21.8 SSE 19 24 1018.7 - - - - - - - - -
13/07:20pm 21.9 SSE 18 - 1018.5 - - - - - - - - -
13/07:00pm 21.9 SSE 18 24 1018.5 - - - - - - - - -
13/06:30pm 21.9 SSE 19 25 1018.3 - - - - - - - - -
13/06:20pm 21.9 SSE 20 - 1018.1 - - - - - - - - -
13/06:00pm 22.0 SSE 19 23 1018.0 - - - - - - - - -
13/05:30pm 21.9 SSE 19 23 1017.8 - - - - - - - - -

Other Formats:

Comma delimited format used in spreadsheet applications
http://www.bom.gov.au/fwo/IDQ60701/IDQ60701.94371.axf

JavaScript Object Notation format (JSON) in row-major order
http://www.bom.gov.au/fwo/IDQ60701/IDQ60701.94371.json